Voltar ao catálogo

SCOUT A R/B

AtivoPO
NORAD 4515·ROCKET BODY·🇺🇸 United States

Lançado Aug 27, 1970 de Vandenberg Space Force Base

Loading…

Próximas Passagens (próximas 24 horas)

TLE

AtualizadoSource: Space-Track

Época: Sep 14, 2026, 21:50 UTC

1 04515U 70067B   26257.90991348  .00000075  00000-0  96820-4 0  9991
2 04515  90.0188 234.4307 0171469 307.5915  78.4743 13.49683942757443

Acompanhe SCOUT A R/B em tempo real com AllMySat

Download on the App Store